TimeEDT,TemperatureF,Dew PointF,Humidity,Sea Level PressureIn,VisibilityMPH,Wind Direction,Wind SpeedMPH,Gust SpeedMPH,PrecipitationIn,Events,Conditions,WindDirDegrees,DateUTC
12:54 AM,39.9,32.0,73,30.24,10.0,Calm,Calm,-,N/A,,Clear,0,2013-03-11 04:54:00
1:54 AM,39.0,33.1,79,30.23,10.0,ESE,3.5,-,N/A,,Clear,110,2013-03-11 05:54:00
2:54 AM,39.0,32.0,76,30.22,10.0,Calm,Calm,-,N/A,,Clear,0,2013-03-11 06:54:00
3:54 AM,39.0,33.1,79,30.18,10.0,ESE,4.6,-,N/A,,Partly Cloudy,110,2013-03-11 07:54:00
4:54 AM,41.0,35.1,79,30.17,10.0,Calm,Calm,-,N/A,,Clear,0,2013-03-11 08:54:00
5:54 AM,41.0,37.0,86,30.17,10.0,Calm,Calm,-,N/A,,Partly Cloudy,0,2013-03-11 09:54:00
6:54 AM,41.0,37.9,89,30.15,10.0,Calm,Calm,-,N/A,,Clear,0,2013-03-11 10:54:00
7:54 AM,43.0,41.0,93,30.16,9.0,ESE,3.5,-,N/A,,Clear,120,2013-03-11 11:54:00
8:54 AM,50.0,46.9,89,30.16,9.0,ESE,8.1,-,N/A,,Clear,120,2013-03-11 12:54:00
9:54 AM,55.0,48.9,80,30.14,10.0,SSE,6.9,-,N/A,,Clear,150,2013-03-11 13:54:00
10:54 AM,62.1,52.0,70,30.13,10.0,SSE,5.8,-,N/A,,Clear,160,2013-03-11 14:54:00
11:54 AM,66.0,51.1,59,30.12,10.0,SSE,12.7,18.4,N/A,,Mostly Cloudy,160,2013-03-11 15:54:00
12:54 PM,68.0,51.1,55,30.10,10.0,SSE,13.8,20.7,N/A,,Overcast,150,2013-03-11 16:54:00
1:54 PM,68.0,51.1,55,30.08,10.0,South,9.2,-,N/A,,Overcast,170,2013-03-11 17:54:00
2:54 PM,71.1,50.0,47,30.04,10.0,SSE,12.7,19.6,N/A,,Overcast,160,2013-03-11 18:54:00
3:54 PM,69.1,48.9,49,30.01,10.0,SSE,18.4,24.2,N/A,,Overcast,160,2013-03-11 19:54:00
4:54 PM,70.0,50.0,49,29.98,10.0,SSE,13.8,-,N/A,,Overcast,160,2013-03-11 20:54:00
5:54 PM,66.9,51.1,57,30.00,10.0,SSE,9.2,19.6,N/A,,Overcast,160,2013-03-11 21:54:00
7:54 PM,62.1,54.0,75,29.98,10.0,SE,11.5,-,N/A,,Partly Cloudy,140,2013-03-11 23:54:00
8:54 PM,61.0,54.0,78,29.96,10.0,SE,11.5,-,N/A,,Clear,140,2013-03-12 00:54:00
9:54 PM,61.0,54.0,78,29.97,10.0,SSE,5.8,-,N/A,,Mostly Cloudy,160,2013-03-12 01:54:00
10:54 PM,61.0,54.0,78,29.96,10.0,SSE,5.8,-,N/A,,Overcast,150,2013-03-12 02:54:00
11:54 PM,60.1,54.0,80,29.95,10.0,SSE,3.5,-,N/A,,Mostly Cloudy,150,2013-03-12 03:54:00